[Date Prev][Date Next][Thread Prev][Thread Next] - [Date Index][Thread Index][Author Index]
2 Line ISS Keps 7-3
- Subject: [sarex] 2 Line ISS Keps 7-3
- From: "Dave Larsen PhD" <doc@xxxxxxxxxxx>
- Date: Tue, 3 Jul 2001 07:13:05 -0700
ISS
1 25544U 98067A 01184.47622846 .00041783 00000-0 44212-3 0 1646
2 25544 51.5712 6.2786 0016209 236.9308 212.0579 15.63563027149627
----
Via the sarex mailing list at AMSAT.ORG courtesy of AMSAT-NA.
To unsubscribe, send "unsubscribe sarex" to Majordomo@amsat.org
AMSAT Home